Orbital Elements at Epoch 2459000.5 (2020-May-31.0) TDB
Reference: JPL 20 (heliocentric ecliptic J2000)
Element | Value | Uncertainty (1-sigma) | Units |
e | .1318517125228894 | 4.2372e-08 | |
a | 2.456030127380411 | 9.6439e-09 | au |
q | 2.132198349077494 | 1.0571e-07 | au |
i | 2.220824078317994 | 4.0067e-06 | deg |
node | 249.4029017606419 | 0.00013189 | deg |
peri | 229.328806788824 | 0.00013331 | deg |
M | 238.0526651506191 | 1.9511e-05 | deg |
tp | 2459476.732219398441 (2021-Sep-19.23221940) | 7.6924e-05 | TDB |
period | 1405.882294969312 3.85 | 8.2806e-06 2.267e-08 | d yr |
n | .2560669561656712 | 1.5082e-09 | deg/d |
Q | 2.779861905683328 | 1.0915e-08 | au |
|
| | Orbit Determination Parameters
Additional Information
|